CDT,Max TemperatureF,Mean TemperatureF,Min TemperatureF,Max Dew PointF,MeanDew PointF,Min DewpointF,Max Humidity, Mean Humidity, Min Humidity, Max Sea Level PressureIn, Mean Sea Level PressureIn, Min Sea Level PressureIn, Max VisibilityMiles, Mean VisibilityMiles, Min VisibilityMiles, Max Wind SpeedMPH, Mean Wind SpeedMPH, Max Gust SpeedMPH,PrecipitationIn, CloudCover, Events, WindDirDegrees
2013-10-1,82,73,64,61,55,52,64,57,48,30.08,30.04,29.99,10,10,8,7,4,,0.02,5,,143
2013-10-2,82,75,68,61,55,54,60,55,45,30.12,30.07,30.05,10,10,9,14,3,21,0.07,3,Thunderstorm,180
2013-10-3,84,75,66,57,55,52,64,53,40,30.08,30.02,29.96,10,10,10,8,3,,0.00,2,,159
2013-10-4,84,76,68,61,57,54,60,53,45,30.07,30.02,29.98,10,10,7,12,6,20,0.00,2,,157
2013-10-5,84,76,68,61,58,54,60,54,42,30.04,29.97,29.88,10,10,4,12,5,,1.13,6,Thunderstorm,175
2013-10-6,69,61,53,54,40,34,64,48,33,30.01,29.94,29.88,10,10,7,15,7,22,0.44,4,Thunderstorm,279
2013-10-7,66,56,46,39,36,32,58,48,35,30.15,30.07,29.97,10,10,10,12,3,16,0.00,0,,2
2013-10-8,71,60,48,39,37,34,58,45,29,30.20,30.15,30.10,10,10,2,15,5,22,0.00,0,,58
2013-10-9,77,65,53,54,45,36,59,51,41,30.18,30.12,30.09,10,10,8,9,4,,0.00,3,,117
2013-10-10,78,68,57,52,47,43,63,53,36,30.18,30.10,30.03,10,8,0,8,0,,0.00,3,,147
2013-10-11,80,68,55,52,47,43,63,49,32,30.08,30.03,29.98,10,10,5,8,2,,0.00,1,,151
2013-10-12,75,67,59,54,49,45,60,55,47,30.15,30.07,30.01,10,9,0,12,3,,0.06,3,Thunderstorm,149
2013-10-13,77,68,59,50,45,37,59,47,36,30.30,30.24,30.16,10,8,0,15,6,20,0.00,2,,17
2013-10-14,77,66,55,52,44,34,52,44,36,30.27,30.18,30.09,10,10,9,10,6,,0.00,0,,70
2013-10-15,68,65,64,50,48,48,56,53,52,30.09,30.04,30.03,10,10,10,10,4,,0.00,4,,139
2013-10-16,,,,,,,,,,,,,,,,,,,,,,
2013-10-17,64,56,48,52,42,39,76,61,45,30.04,30.01,29.99,10,10,7,9,4,,0.00,1,,317
2013-10-18,69,56,44,48,43,36,76,60,40,30.09,30.03,29.96,10,10,8,8,1,,0.00,2,,202
2013-10-19,59,50,42,46,39,34,72,63,44,30.09,30.03,29.93,10,10,2,14,4,22,0.05,5,,317
2013-10-20,66,52,39,39,36,30,75,59,37,30.13,30.06,30.01,10,10,10,10,2,,0.00,0,,187
2013-10-21,69,56,42,46,41,32,72,59,40,30.08,30.04,29.99,10,10,10,14,3,22,0.06,3,,263
2013-10-22,64,55,46,45,38,34,72,55,34,30.09,30.01,29.90,10,10,10,13,5,17,0.00,3,,308
2013-10-23,55,48,42,37,32,28,71,54,38,30.18,30.10,29.96,10,10,10,15,7,21,0.00,3,,328
2013-10-24,55,47,39,37,32,25,71,54,38,30.42,30.25,30.13,10,10,5,16,4,22,0.00,4,,8
2013-10-25,51,40,30,27,23,21,69,52,30,30.56,30.46,30.35,10,10,5,12,4,16,0.00,0,,26
2013-10-26,62,48,35,43,32,23,65,52,39,30.33,30.21,30.10,10,10,10,14,5,18,0.00,3,,198
2013-10-27,60,56,51,46,44,39,72,64,55,30.14,30.08,30.04,10,10,10,7,3,,0.00,8,,42
2013-10-28,71,60,50,48,45,43,76,63,43,30.26,30.19,30.07,10,9,1,8,1,,0.00,2,,242
2013-10-29,69,58,48,57,51,41,77,70,60,30.28,30.20,30.13,10,9,5,10,3,,0.00,5,,132
2013-10-30,73,68,64,59,56,54,73,64,57,30.19,30.11,29.99,10,10,10,12,6,18,0.00,5,,177
2013-10-31,66,64,62,57,55,54,77,71,68,29.98,29.87,29.71,10,10,6,17,9,29,0.19,8,,157